Tracking 30260 objects as of 14-Feb-2025
HD Live streaming from Space Station
objects crossing your sky now

NOAA 17 DEB

Track NOAA 17 DEB now!
10-day predictions


NORAD ID: 48752
Int'l Code: 2002-032CN
Perigee: 621.0 km
Apogee: 651.3 km
Inclination: 98.7 °
Period: 97.3 minutes
Semi major axis: 7007 km
RCS: Unknown
Launch date: June 24, 2002
Source: United States (US)
Launch site: AIR FORCE WESTERN TEST RANGE (AFWTR)

Note: This is SATELLITE DEBRIS
Your satellite tracking list
Your tracking list is empty




NASA's NSSDC Master Catalog

Two Line Element Set (TLE):
1 48752U 02032CM  25044.95476469  .00049140  00000-0  64196-2 0  9994
2 48752  98.7200  53.0249 0021596  17.5655 342.6297 14.80095499205053
Source of the keplerian elements: AFSPC